Time,TemperatureF,DewpointF,PressureIn,WindDirection,WindDirectionDegrees,WindSpeedMPH,WindSpeedGustMPH,Humidity,HourlyPrecipIn,Conditions,Clouds,dailyrainin,SoftwareType,DateUTC
2013-02-09 00:01:00,14.8,11.4,30.12,NW,304,3.0,11.0,86,0.00,,---,0.01,VWS V14.01,2013-02-09 05:01:00,
2013-02-09 00:03:00,14.8,11.4,30.12,WNW,287,1.0,9.0,86,0.00,,---,0.00,VWS V14.01,2013-02-09 05:03:00,
2013-02-09 00:09:00,14.9,11.5,30.12,West,273,1.0,9.0,86,0.00,,---,0.00,VWS V14.01,2013-02-09 05:09:00,
2013-02-09 00:15:00,14.9,11.5,30.13,West,273,4.0,9.0,86,0.00,,---,0.00,VWS V14.01,2013-02-09 05:15:00,
2013-02-09 00:21:00,15.0,11.6,30.13,WNW,284,0.0,9.0,86,0.00,,---,0.00,VWS V14.01,2013-02-09 05:21:00,
2013-02-09 00:27:00,15.0,11.8,30.14,WNW,296,3.0,9.0,87,0.00,,---,0.00,VWS V14.01,2013-02-09 05:27:00,
2013-02-09 00:33:00,15.1,11.9,30.14,WNW,282,4.0,4.0,87,0.00,,---,0.00,VWS V14.01,2013-02-09 05:33:00,
2013-02-09 00:39:00,15.2,12.0,30.14,West,277,3.0,7.0,87,0.00,,---,0.00,VWS V14.01,2013-02-09 05:39:00,
2013-02-09 00:45:00,15.3,11.9,30.15,West,280,5.0,16.0,86,0.00,,---,0.00,VWS V14.01,2013-02-09 05:45:00,
2013-02-09 00:51:00,15.1,11.7,30.15,West,269,1.0,16.0,86,0.00,,---,0.00,VWS V14.01,2013-02-09 05:51:00,
2013-02-09 00:57:00,15.0,11.6,30.15,WNW,294,6.0,16.0,86,0.00,,---,0.00,VWS V14.01,2013-02-09 05:57:00,
2013-02-09 01:03:00,14.9,11.2,30.16,WNW,287,3.0,10.0,85,0.00,,---,0.00,VWS V14.01,2013-02-09 06:03:00,
2013-02-09 01:09:00,14.8,11.1,30.16,West,270,6.0,13.0,85,0.00,,---,0.00,VWS V14.01,2013-02-09 06:09:00,
2013-02-09 01:15:00,14.7,11.0,30.16,NNW,336,4.0,14.0,85,0.00,,---,0.00,VWS V14.01,2013-02-09 06:15:00,
2013-02-09 01:21:00,14.7,11.0,30.17,West,273,6.0,14.0,85,0.00,,---,0.00,VWS V14.01,2013-02-09 06:21:00,
2013-02-09 01:27:00,14.6,10.9,30.17,NNW,331,4.0,14.0,85,0.00,,---,0.00,VWS V14.01,2013-02-09 06:27:00,
2013-02-09 01:33:00,14.6,10.9,30.17,NW,322,8.0,14.0,85,0.00,,---,0.00,VWS V14.01,2013-02-09 06:33:00,
2013-02-09 01:40:00,14.6,10.9,30.18,West,280,4.0,14.0,85,0.00,,---,0.00,VWS V14.01,2013-02-09 06:40:00,
2013-02-09 01:46:00,14.6,10.9,30.18,West,275,4.0,14.0,85,0.00,,---,0.00,VWS V14.01,2013-02-09 06:46:00,
2013-02-09 01:52:00,14.5,10.8,30.18,NNW,334,3.0,14.0,85,0.00,,---,0.00,VWS V14.01,2013-02-09 06:52:00,
2013-02-09 01:58:00,14.5,10.8,30.19,NW,308,2.0,14.0,85,0.00,,---,0.00,VWS V14.01,2013-02-09 06:58:00,
2013-02-09 02:04:00,14.5,10.8,30.19,NW,315,4.0,5.0,85,0.00,,---,0.00,VWS V14.01,2013-02-09 07:04:00,
2013-02-09 02:10:00,14.5,11.1,30.19,West,281,8.0,8.0,86,0.00,,---,0.00,VWS V14.01,2013-02-09 07:10:00,
2013-02-09 02:16:00,14.4,11.0,30.19,WNW,289,2.0,10.0,86,0.00,,---,0.00,VWS V14.01,2013-02-09 07:16:00,
2013-02-09 02:22:00,14.4,11.0,30.19,NW,321,5.0,10.0,86,0.00,,---,0.00,VWS V14.01,2013-02-09 07:22:00,
2013-02-09 02:28:00,14.3,10.6,30.20,WSW,253,6.0,14.0,85,0.00,,---,0.00,VWS V14.01,2013-02-09 07:28:00,
2013-02-09 02:34:00,14.2,10.5,30.20,WSW,258,6.0,6.0,85,0.00,,---,0.00,VWS V14.01,2013-02-09 07:34:00,
2013-02-09 02:40:00,14.1,10.4,30.21,WNW,283,4.0,12.0,85,0.00,,---,0.00,VWS V14.01,2013-02-09 07:40:00,
2013-02-09 02:46:00,14.0,10.1,30.21,West,268,4.0,12.0,84,0.00,,---,0.00,VWS V14.01,2013-02-09 07:46:00,
2013-02-09 02:52:00,14.0,10.1,30.20,WSW,254,2.0,12.0,84,0.00,,---,0.00,VWS V14.01,2013-02-09 07:52:00,
2013-02-09 02:58:00,13.9,10.2,30.21,West,280,7.0,12.0,85,0.00,,---,0.00,VWS V14.01,2013-02-09 07:58:00,
2013-02-09 03:04:00,13.9,10.2,30.22,WNW,290,5.0,9.0,85,0.00,,---,0.00,VWS V14.01,2013-02-09 08:04:00,
2013-02-09 03:10:00,13.8,9.9,30.21,WNW,284,4.0,9.0,84,0.00,,---,0.00,VWS V14.01,2013-02-09 08:10:00,
2013-02-09 03:16:00,13.8,10.1,30.21,WNW,284,0.0,9.0,85,0.00,,---,0.00,VWS V14.01,2013-02-09 08:16:00,
2013-02-09 03:22:00,13.8,10.1,30.22,WSW,241,4.0,12.0,85,0.00,,---,0.00,VWS V14.01,2013-02-09 08:22:00,
2013-02-09 03:28:00,13.8,10.1,30.22,NNW,329,4.0,12.0,85,0.00,,---,0.00,VWS V14.01,2013-02-09 08:28:00,
2013-02-09 03:34:00,13.8,9.9,30.23,West,271,4.0,10.0,84,0.00,,---,0.00,VWS V14.01,2013-02-09 08:34:00,
2013-02-09 03:40:00,13.8,10.1,30.23,WSW,246,2.0,10.0,85,0.00,,---,0.00,VWS V14.01,2013-02-09 08:40:00,
2013-02-09 03:46:00,13.8,10.1,30.22,West,273,2.0,10.0,85,0.00,,---,0.00,VWS V14.01,2013-02-09 08:46:00,
2013-02-09 03:52:00,13.8,10.1,30.23,West,263,2.0,10.0,85,0.00,,---,0.00,VWS V14.01,2013-02-09 08:52:00,
2013-02-09 03:58:00,13.9,10.2,30.23,West,277,5.0,10.0,85,0.00,,---,0.00,VWS V14.01,2013-02-09 08:58:00,
2013-02-09 04:05:00,13.9,10.2,30.24,WNW,288,5.0,10.0,85,0.00,,---,0.00,VWS V14.01,2013-02-09 09:05:00,
2013-02-09 04:11:00,14.0,10.3,30.24,West,259,5.0,10.0,85,0.00,,---,0.00,VWS V14.01,2013-02-09 09:11:00,
2013-02-09 04:17:00,14.0,10.3,30.23,NW,307,3.0,10.0,85,0.00,,---,0.00,VWS V14.01,2013-02-09 09:17:00,
2013-02-09 04:23:00,14.1,10.4,30.24,NW,321,2.0,10.0,85,0.00,,---,0.00,VWS V14.01,2013-02-09 09:23:00,
2013-02-09 04:29:00,14.1,10.7,30.25,NW,321,4.0,10.0,86,0.00,,---,0.00,VWS V14.01,2013-02-09 09:29:00,
2013-02-09 04:35:00,14.2,10.5,30.24,WNW,286,0.0,7.0,85,0.00,,---,0.00,VWS V14.01,2013-02-09 09:35:00,
2013-02-09 04:41:00,14.2,10.5,30.25,North,360,2.0,7.0,85,0.00,,---,0.00,VWS V14.01,2013-02-09 09:41:00,
2013-02-09 04:47:00,14.3,10.6,30.25,WNW,287,3.0,10.0,85,0.00,,---,0.00,VWS V14.01,2013-02-09 09:47:00,
2013-02-09 04:53:00,14.2,10.5,30.25,NW,325,11.0,11.0,85,0.00,,---,0.00,VWS V14.01,2013-02-09 09:53:00,
2013-02-09 04:59:00,14.3,10.6,30.25,WSW,246,11.0,11.0,85,0.00,,---,0.00,VWS V14.01,2013-02-09 09:59:00,
2013-02-09 05:05:00,14.2,10.5,30.25,West,273,1.0,4.0,85,0.00,,---,0.00,VWS V14.01,2013-02-09 10:05:00,
2013-02-09 05:11:00,14.2,10.5,30.26,WNW,298,4.0,12.0,85,0.00,,---,0.00,VWS V14.01,2013-02-09 10:11:00,
2013-02-09 05:17:00,14.1,10.4,30.25,West,267,6.0,12.0,85,0.00,,---,0.00,VWS V14.01,2013-02-09 10:17:00,
2013-02-09 05:23:00,14.1,10.7,30.26,North,360,1.0,12.0,86,0.00,,---,0.00,VWS V14.01,2013-02-09 10:23:00,
2013-02-09 05:29:00,14.1,10.7,30.26,WSW,252,1.0,12.0,86,0.00,,---,0.00,VWS V14.01,2013-02-09 10:29:00,
2013-02-09 05:35:00,14.1,10.7,30.26,NW,314,5.0,15.0,86,0.00,,---,0.00,VWS V14.01,2013-02-09 10:35:00,
2013-02-09 05:41:00,14.1,10.4,30.27,WSW,257,4.0,15.0,85,0.00,,---,0.00,VWS V14.01,2013-02-09 10:41:00,
2013-02-09 05:47:00,14.2,10.5,30.27,NW,309,2.0,15.0,85,0.00,,---,0.00,VWS V14.01,2013-02-09 10:47:00,
2013-02-09 05:53:00,14.2,10.8,30.27,NNW,333,1.0,15.0,86,0.00,,---,0.00,VWS V14.01,2013-02-09 10:53:00,
2013-02-09 05:59:00,14.2,10.8,30.28,WNW,299,1.0,15.0,86,0.00,,---,0.00,VWS V14.01,2013-02-09 10:59:00,
2013-02-09 06:05:00,14.2,10.8,30.28,NW,310,3.0,7.0,86,0.00,,---,0.00,VWS V14.01,2013-02-09 11:05:00,
2013-02-09 06:11:00,14.2,10.8,30.29,SW,229,4.0,9.0,86,0.00,,---,0.00,VWS V14.01,2013-02-09 11:11:00,
2013-02-09 06:17:00,14.3,10.9,30.29,WNW,291,2.0,9.0,86,0.00,,---,0.00,VWS V14.01,2013-02-09 11:17:00,
2013-02-09 06:23:00,14.3,10.9,30.30,NW,304,1.0,9.0,86,0.00,,---,0.00,VWS V14.01,2013-02-09 11:23:00,
2013-02-09 06:30:00,14.3,10.9,30.30,WNW,282,5.0,9.0,86,0.00,,---,0.00,VWS V14.01,2013-02-09 11:30:00,
2013-02-09 06:36:00,14.2,10.8,30.31,West,268,2.0,6.0,86,0.00,,---,0.00,VWS V14.01,2013-02-09 11:36:00,
2013-02-09 06:42:00,14.2,10.8,30.31,West,268,2.0,6.0,86,0.00,,---,0.00,VWS V14.01,2013-02-09 11:42:00,
2013-02-09 06:48:00,14.3,10.9,30.32,WNW,288,4.0,7.0,86,0.00,,---,0.00,VWS V14.01,2013-02-09 11:48:00,
2013-02-09 06:54:00,14.3,10.9,30.32,SW,224,5.0,11.0,86,0.00,,---,0.00,VWS V14.01,2013-02-09 11:54:00,
2013-02-09 07:00:00,14.3,10.9,30.32,WNW,287,2.0,14.0,86,0.00,,---,0.00,VWS V14.01,2013-02-09 12:00:00,
2013-02-09 07:06:00,14.3,10.9,30.33,NNW,338,1.0,7.0,86,0.00,,---,0.00,VWS V14.01,2013-02-09 12:06:00,
2013-02-09 07:12:00,14.3,10.9,30.33,West,265,4.0,9.0,86,0.00,,---,0.00,VWS V14.01,2013-02-09 12:12:00,
2013-02-09 07:18:00,14.3,10.9,30.33,WNW,291,3.0,9.0,86,0.00,,---,0.00,VWS V14.01,2013-02-09 12:18:00,
2013-02-09 07:24:00,14.3,10.9,30.34,WNW,296,5.0,9.0,86,0.00,,---,0.00,VWS V14.01,2013-02-09 12:24:00,
2013-02-09 07:30:00,14.3,10.9,30.34,WNW,299,3.0,9.0,86,0.00,,---,0.00,VWS V14.01,2013-02-09 12:30:00,
2013-02-09 07:36:00,14.3,10.9,30.34,NW,304,1.0,7.0,86,0.00,,---,0.00,VWS V14.01,2013-02-09 12:36:00,
2013-02-09 07:42:00,14.3,10.9,30.34,West,279,2.0,7.0,86,0.00,,---,0.00,VWS V14.01,2013-02-09 12:42:00,
2013-02-09 07:48:00,14.3,10.9,30.34,West,274,1.0,7.0,86,0.00,,---,0.00,VWS V14.01,2013-02-09 12:48:00,
2013-02-09 07:54:00,14.4,11.0,30.35,West,263,3.0,7.0,86,0.00,,---,0.00,VWS V14.01,2013-02-09 12:54:00,
2013-02-09 08:00:00,14.5,11.1,30.36,North,355,1.0,7.0,86,0.00,,---,0.00,VWS V14.01,2013-02-09 13:00:00,
2013-02-09 08:06:00,14.5,11.1,30.36,WNW,282,0.0,2.0,86,0.00,,---,0.00,VWS V14.01,2013-02-09 13:06:00,
2013-02-09 08:12:00,14.6,11.4,30.36,WNW,283,1.0,2.0,87,0.00,,---,0.00,VWS V14.01,2013-02-09 13:12:00,
2013-02-09 08:18:00,14.7,11.5,30.36,WNW,283,0.0,3.0,87,0.00,,---,0.00,VWS V14.01,2013-02-09 13:18:00,
2013-02-09 08:24:00,14.8,11.6,30.36,WNW,283,2.0,3.0,87,0.00,,---,0.00,VWS V14.01,2013-02-09 13:24:00,
2013-02-09 08:30:00,14.9,11.7,30.36,West,279,3.0,4.0,87,0.00,,---,0.00,VWS V14.01,2013-02-09 13:30:00,
2013-02-09 08:36:00,15.0,11.6,30.37,West,264,0.0,7.0,86,0.00,,---,0.00,VWS V14.01,2013-02-09 13:36:00,
2013-02-09 08:42:00,15.0,11.6,30.36,WNW,287,0.0,7.0,86,0.00,,---,0.00,VWS V14.01,2013-02-09 13:42:00,
2013-02-09 08:49:00,15.2,11.5,30.36,West,269,1.0,7.0,85,0.00,,---,0.00,VWS V14.01,2013-02-09 13:49:00,
2013-02-09 08:55:00,15.3,11.9,30.36,West,280,3.0,7.0,86,0.00,,---,0.00,VWS V14.01,2013-02-09 13:55:00,
2013-02-09 09:01:00,15.3,11.6,30.36,West,260,1.0,7.0,85,0.00,,---,0.00,VWS V14.01,2013-02-09 14:01:00,
2013-02-09 09:07:00,15.3,11.3,30.36,NW,315,1.0,6.0,84,0.00,,---,0.00,VWS V14.01,2013-02-09 14:07:00,
2013-02-09 09:13:00,15.4,11.2,30.36,NW,319,0.0,10.0,83,0.00,,---,0.00,VWS V14.01,2013-02-09 14:13:00,
2013-02-09 09:19:00,15.5,11.3,30.37,WSW,241,6.0,10.0,83,0.00,,---,0.00,VWS V14.01,2013-02-09 14:19:00,
2013-02-09 09:25:00,15.5,11.3,30.37,WNW,288,0.0,10.0,83,0.00,,---,0.00,VWS V14.01,2013-02-09 14:25:00,
2013-02-09 09:31:00,15.7,11.2,30.38,WSW,241,3.0,10.0,82,0.00,,---,0.00,VWS V14.01,2013-02-09 14:31:00,
2013-02-09 09:37:00,15.8,11.3,30.38,WSW,250,3.0,5.0,82,0.00,,---,0.00,VWS V14.01,2013-02-09 14:37:00,
2013-02-09 09:43:00,16.0,11.5,30.38,NW,322,3.0,5.0,82,0.00,,---,0.00,VWS V14.01,2013-02-09 14:43:00,
2013-02-09 09:49:00,16.2,11.7,30.38,WNW,290,4.0,7.0,82,0.00,,---,0.00,VWS V14.01,2013-02-09 14:49:00,
2013-02-09 09:55:00,16.2,11.4,30.38,NW,319,1.0,7.0,81,0.00,,---,0.00,VWS V14.01,2013-02-09 14:55:00,
2013-02-09 10:01:00,16.4,11.6,30.39,West,261,1.0,7.0,81,0.00,,---,0.00,VWS V14.01,2013-02-09 15:01:00,
2013-02-09 10:07:00,16.5,11.7,30.39,WSW,248,4.0,10.0,81,0.00,,---,0.00,VWS V14.01,2013-02-09 15:07:00,
2013-02-09 10:13:00,16.4,11.6,30.39,WNW,290,2.0,10.0,81,0.00,,---,0.00,VWS V14.01,2013-02-09 15:13:00,
2013-02-09 10:19:00,16.5,11.7,30.40,WNW,302,1.0,10.0,81,0.00,,---,0.00,VWS V14.01,2013-02-09 15:19:00,
2013-02-09 10:25:00,16.7,12.2,30.40,NW,318,1.0,10.0,82,0.00,,---,0.00,VWS V14.01,2013-02-09 15:25:00,
2013-02-09 10:31:00,17.0,12.2,30.40,NW,305,2.0,10.0,81,0.00,,---,0.00,VWS V14.01,2013-02-09 15:31:00,
2013-02-09 10:37:00,17.1,12.3,30.40,North,5,1.0,4.0,81,0.00,,---,0.00,VWS V14.01,2013-02-09 15:37:00,
2013-02-09 10:43:00,17.5,12.7,30.40,WNW,290,6.0,6.0,81,0.00,,---,0.00,VWS V14.01,2013-02-09 15:43:00,
2013-02-09 10:49:00,17.3,12.2,30.40,West,265,11.0,13.0,80,0.00,,---,0.00,VWS V14.01,2013-02-09 15:49:00,
2013-02-09 10:55:00,17.4,12.3,30.40,WSW,243,1.0,13.0,80,0.00,,---,0.00,VWS V14.01,2013-02-09 15:55:00,
2013-02-09 11:01:00,18.1,13.0,30.40,NE,34,0.0,13.0,80,0.00,,---,0.00,VWS V14.01,2013-02-09 16:01:00,
2013-02-09 11:07:00,18.4,13.3,30.40,West,278,5.0,7.0,80,0.00,,---,0.00,VWS V14.01,2013-02-09 16:07:00,
2013-02-09 11:13:00,18.1,12.4,30.40,WNW,292,1.0,7.0,78,0.00,,---,0.00,VWS V14.01,2013-02-09 16:13:00,
2013-02-09 11:19:00,18.4,13.0,30.39,NNE,19,2.0,7.0,79,0.00,,---,0.00,VWS V14.01,2013-02-09 16:19:00,
2013-02-09 11:26:00,18.9,13.2,30.39,West,267,6.0,7.0,78,0.00,,---,0.00,VWS V14.01,2013-02-09 16:26:00,
2013-02-09 11:31:00,19.0,13.3,30.39,West,280,2.0,7.0,78,0.00,,---,0.00,VWS V14.01,2013-02-09 16:31:00,
2013-02-09 11:38:00,19.1,13.4,30.40,West,274,4.0,7.0,78,0.00,,---,0.00,VWS V14.01,2013-02-09 16:38:00,
2013-02-09 11:44:00,19.8,14.1,30.40,West,275,1.0,7.0,78,0.00,,---,0.00,VWS V14.01,2013-02-09 16:44:00,
2013-02-09 11:50:00,20.0,14.0,30.39,NW,323,1.0,7.0,77,0.00,,---,0.00,VWS V14.01,2013-02-09 16:50:00,
2013-02-09 11:56:00,19.8,13.8,30.40,WNW,295,3.0,7.0,77,0.00,,---,0.00,VWS V14.01,2013-02-09 16:56:00,
2013-02-09 12:01:00,19.5,13.5,30.39,West,279,2.0,7.0,77,0.00,,---,0.00,VWS V14.01,2013-02-09 17:01:00,
2013-02-09 12:08:00,20.3,14.3,30.39,WNW,298,1.0,6.0,77,0.00,,---,0.00,VWS V14.01,2013-02-09 17:08:00,
2013-02-09 12:14:00,20.9,14.5,30.39,NNW,337,0.0,7.0,76,0.00,,---,0.00,VWS V14.01,2013-02-09 17:14:00,
2013-02-09 12:20:00,20.3,14.0,30.39,NNW,341,0.0,7.0,76,0.00,,---,0.00,VWS V14.01,2013-02-09 17:20:00,
2013-02-09 12:26:00,20.8,13.8,30.39,WSW,240,8.0,10.0,74,0.00,,---,0.00,VWS V14.01,2013-02-09 17:26:00,
2013-02-09 12:31:00,21.2,14.5,30.39,WSW,244,5.0,11.0,75,0.00,,---,0.00,VWS V14.01,2013-02-09 17:31:00,
2013-02-09 12:38:00,21.0,14.0,30.39,WSW,244,1.0,11.0,74,0.00,,---,0.00,VWS V14.01,2013-02-09 17:38:00,
2013-02-09 12:44:00,20.8,14.1,30.39,WSW,237,6.0,11.0,75,0.00,,---,0.00,VWS V14.01,2013-02-09 17:44:00,
2013-02-09 12:50:00,21.7,14.4,30.39,North,5,2.0,11.0,73,0.00,,---,0.00,VWS V14.01,2013-02-09 17:50:00,
2013-02-09 12:56:00,22.7,15.1,30.39,NNW,330,1.0,11.0,72,0.00,,---,0.00,VWS V14.01,2013-02-09 17:56:00,
2013-02-09 13:01:00,23.1,14.8,30.39,WNW,286,2.0,11.0,70,0.00,,---,0.00,VWS V14.01,2013-02-09 18:01:00,
2013-02-09 13:06:00,23.5,15.2,30.39,WNW,290,2.0,4.0,70,0.00,,---,0.00,VWS V14.01,2013-02-09 18:06:00,
2013-02-09 13:12:00,24.0,15.3,30.39,West,264,7.0,7.0,69,0.00,,---,0.00,VWS V14.01,2013-02-09 18:12:00,
2013-02-09 13:18:00,23.9,17.5,30.39,WNW,289,5.0,8.0,76,0.00,,---,0.00,VWS V14.01,2013-02-09 18:18:00,
2013-02-09 13:24:00,25.0,16.3,30.39,West,267,1.0,8.0,69,0.00,,---,0.00,VWS V14.01,2013-02-09 18:24:00,
2013-02-09 13:31:00,24.8,15.8,30.39,West,267,5.0,12.0,68,0.00,,---,0.00,VWS V14.01,2013-02-09 18:31:00,
2013-02-09 13:37:00,23.9,14.9,30.38,West,277,1.0,12.0,68,0.00,,---,0.00,VWS V14.01,2013-02-09 18:37:00,
2013-02-09 13:43:00,24.8,16.1,30.38,WSW,257,3.0,12.0,69,0.00,,---,0.00,VWS V14.01,2013-02-09 18:43:00,
2013-02-09 13:49:00,24.5,15.1,30.38,ENE,57,1.0,12.0,67,0.00,,---,0.00,VWS V14.01,2013-02-09 18:49:00,
2013-02-09 13:55:00,24.9,15.5,30.38,WNW,285,1.0,12.0,67,0.00,,---,0.00,VWS V14.01,2013-02-09 18:55:00,
2013-02-09 14:01:00,25.4,16.0,30.38,West,259,1.0,12.0,67,0.00,,---,0.00,VWS V14.01,2013-02-09 19:01:00,
2013-02-09 14:07:00,26.2,16.8,30.37,NE,42,1.0,5.0,67,0.00,,---,0.00,VWS V14.01,2013-02-09 19:07:00,
2013-02-09 14:13:00,25.9,16.1,30.37,WSW,257,3.0,6.0,66,0.00,,---,0.00,VWS V14.01,2013-02-09 19:13:00,
2013-02-09 14:19:00,26.2,16.1,30.38,WNW,284,3.0,7.0,65,0.00,,---,0.00,VWS V14.01,2013-02-09 19:19:00,
2013-02-09 14:25:00,25.5,15.0,30.38,WSW,253,3.0,13.0,64,0.00,,---,0.00,VWS V14.01,2013-02-09 19:25:00,
2013-02-09 14:31:00,25.5,15.4,30.38,West,265,0.0,13.0,65,0.00,,---,0.00,VWS V14.01,2013-02-09 19:31:00,
2013-02-09 14:37:00,26.2,16.1,30.38,West,279,6.0,9.0,65,0.02,,---,0.02,VWS V14.01,2013-02-09 19:37:00,
2013-02-09 14:43:00,25.8,15.7,30.38,West,264,1.0,9.0,65,0.02,,---,0.02,VWS V14.01,2013-02-09 19:43:00,
2013-02-09 14:49:00,26.1,15.6,30.38,NNW,331,0.0,9.0,64,0.02,,---,0.02,VWS V14.01,2013-02-09 19:49:00,
2013-02-09 14:55:00,26.8,15.9,30.39,WNW,290,1.0,9.0,63,0.02,,---,0.02,VWS V14.01,2013-02-09 19:55:00,
2013-02-09 15:01:00,26.6,15.7,30.39,WNW,296,4.0,9.0,63,0.03,,---,0.03,VWS V14.01,2013-02-09 20:01:00,
2013-02-09 15:07:00,26.1,15.6,30.39,West,271,5.0,10.0,64,0.03,,---,0.03,VWS V14.01,2013-02-09 20:07:00,
2013-02-09 15:13:00,25.8,15.7,30.39,WNW,292,2.0,10.0,65,0.04,,---,0.04,VWS V14.01,2013-02-09 20:13:00,
2013-02-09 15:19:00,25.7,15.2,30.39,WNW,283,10.0,10.0,64,0.04,,---,0.04,VWS V14.01,2013-02-09 20:19:00,
2013-02-09 15:25:00,25.4,14.9,30.39,WNW,302,8.0,12.0,64,0.04,,---,0.04,VWS V14.01,2013-02-09 20:25:00,
2013-02-09 15:31:00,25.5,15.0,30.39,WSW,256,2.0,12.0,64,0.04,,---,0.04,VWS V14.01,2013-02-09 20:31:00,
2013-02-09 15:37:00,25.3,14.8,30.39,WSW,256,1.0,11.0,64,0.04,,---,0.04,VWS V14.01,2013-02-09 20:37:00,
2013-02-09 15:43:00,25.1,15.0,30.39,West,277,1.0,11.0,65,0.04,,---,0.04,VWS V14.01,2013-02-09 20:43:00,
2013-02-09 15:50:00,24.9,14.8,30.38,West,261,2.0,11.0,65,0.04,,---,0.04,VWS V14.01,2013-02-09 20:50:00,
2013-02-09 15:56:00,25.1,15.0,30.38,West,260,4.0,11.0,65,0.05,,---,0.05,VWS V14.01,2013-02-09 20:56:00,
2013-02-09 16:01:00,25.1,14.3,30.38,West,261,3.0,11.0,63,0.05,,---,0.05,VWS V14.01,2013-02-09 21:01:00,
2013-02-09 16:08:00,25.2,14.4,30.38,NW,318,0.0,6.0,63,0.02,,---,0.05,VWS V14.01,2013-02-09 21:08:00,
2013-02-09 16:14:00,25.6,15.1,30.39,West,275,1.0,6.0,64,0.02,,---,0.05,VWS V14.01,2013-02-09 21:14:00,
2013-02-09 16:20:00,25.6,14.8,30.39,West,263,2.0,6.0,63,0.02,,---,0.05,VWS V14.01,2013-02-09 21:20:00,
2013-02-09 16:26:00,25.6,15.1,30.39,WSW,256,2.0,6.0,64,0.02,,---,0.05,VWS V14.01,2013-02-09 21:26:00,
2013-02-09 16:31:00,25.3,14.1,30.38,NNW,346,2.0,6.0,62,0.02,,---,0.05,VWS V14.01,2013-02-09 21:31:00,
2013-02-09 16:38:00,25.5,15.0,30.38,WNW,300,3.0,4.0,64,0.01,,---,0.05,VWS V14.01,2013-02-09 21:38:00,
2013-02-09 16:44:00,25.3,14.8,30.38,West,267,0.0,4.0,64,0.01,,---,0.05,VWS V14.01,2013-02-09 21:44:00,
2013-02-09 16:50:00,24.9,14.5,30.38,West,275,2.0,4.0,64,0.01,,---,0.05,VWS V14.01,2013-02-09 21:50:00,
2013-02-09 16:56:00,24.6,14.9,30.39,West,265,4.0,5.0,66,0.01,,---,0.05,VWS V14.01,2013-02-09 21:56:00,
2013-02-09 17:01:00,24.6,15.2,30.40,West,267,4.0,5.0,67,0.01,,---,0.05,VWS V14.01,2013-02-09 22:01:00,
2013-02-09 17:08:00,24.4,15.0,30.40,West,264,3.0,7.0,67,0.00,,---,0.05,VWS V14.01,2013-02-09 22:08:00,
2013-02-09 17:14:00,24.3,14.6,30.40,WNW,284,0.0,8.0,66,0.00,,---,0.05,VWS V14.01,2013-02-09 22:14:00,
2013-02-09 17:20:00,24.2,14.5,30.39,WNW,284,0.0,8.0,66,0.00,,---,0.05,VWS V14.01,2013-02-09 22:20:00,
2013-02-09 17:26:00,24.0,14.3,30.39,West,267,0.0,8.0,66,0.00,,---,0.05,VWS V14.01,2013-02-09 22:26:00,
2013-02-09 17:31:00,23.9,14.6,30.39,West,267,0.0,8.0,67,0.00,,---,0.05,VWS V14.01,2013-02-09 22:31:00,
2013-02-09 17:36:00,23.6,14.3,30.39,West,267,0.0,2.0,67,0.00,,---,0.05,VWS V14.01,2013-02-09 22:36:00,
2013-02-09 17:42:00,23.3,14.3,30.39,West,267,0.0,2.0,68,0.00,,---,0.05,VWS V14.01,2013-02-09 22:42:00,
2013-02-09 17:48:00,22.9,13.9,30.39,West,267,0.0,2.0,68,0.00,,---,0.05,VWS V14.01,2013-02-09 22:48:00,
2013-02-09 17:54:00,22.5,13.9,30.40,West,267,0.0,2.0,69,0.00,,---,0.05,VWS V14.01,2013-02-09 22:54:00,
2013-02-09 18:01:00,22.0,13.7,30.39,West,267,0.0,2.0,70,0.00,,---,0.05,VWS V14.01,2013-02-09 23:01:00,
2013-02-09 18:07:00,21.6,13.3,30.39,West,267,0.0,0.0,70,0.00,,---,0.05,VWS V14.01,2013-02-09 23:07:00,
2013-02-09 18:13:00,21.1,13.2,30.39,West,267,0.0,0.0,71,0.00,,---,0.05,VWS V14.01,2013-02-09 23:13:00,
2013-02-09 18:19:00,20.7,13.1,30.39,West,267,0.0,1.0,72,0.00,,---,0.05,VWS V14.01,2013-02-09 23:19:00,
2013-02-09 18:25:00,20.3,13.0,30.39,West,267,0.0,1.0,73,0.00,,---,0.05,VWS V14.01,2013-02-09 23:25:00,
2013-02-09 18:31:00,19.8,13.2,30.39,West,267,0.0,1.0,75,0.00,,---,0.05,VWS V14.01,2013-02-09 23:31:00,
2013-02-09 18:37:00,19.6,13.0,30.39,West,267,0.0,1.0,75,0.00,,---,0.05,VWS V14.01,2013-02-09 23:37:00,
2013-02-09 18:43:00,19.3,13.0,30.40,West,267,0.0,1.0,76,0.00,,---,0.05,VWS V14.01,2013-02-09 23:43:00,
2013-02-09 18:49:00,19.1,13.1,30.40,West,267,0.0,1.0,77,0.00,,---,0.05,VWS V14.01,2013-02-09 23:49:00,
2013-02-09 18:55:00,19.0,13.0,30.40,West,267,0.0,1.0,77,0.00,,---,0.05,VWS V14.01,2013-02-09 23:55:00,
2013-02-09 19:01:00,18.8,12.8,30.40,West,267,0.0,1.0,77,0.00,,---,0.05,VWS V14.01,2013-02-10 00:01:00,
2013-02-09 19:07:00,18.6,12.9,30.40,West,267,0.0,0.0,78,0.00,,---,0.05,VWS V14.01,2013-02-10 00:07:00,
2013-02-09 19:13:00,18.5,12.8,30.41,West,267,0.0,0.0,78,0.00,,---,0.05,VWS V14.01,2013-02-10 00:13:00,
2013-02-09 19:19:00,18.4,12.7,30.40,West,267,0.0,1.0,78,0.00,,---,0.05,VWS V14.01,2013-02-10 00:19:00,
2013-02-09 19:25:00,18.0,12.3,30.40,West,267,0.0,1.0,78,0.00,,---,0.05,VWS V14.01,2013-02-10 00:25:00,
2013-02-09 19:31:00,17.6,12.5,30.40,West,267,0.0,1.0,80,0.00,,---,0.05,VWS V14.01,2013-02-10 00:31:00,
2013-02-09 19:37:00,17.3,12.2,30.40,West,267,0.0,1.0,80,0.00,,---,0.05,VWS V14.01,2013-02-10 00:37:00,
2013-02-09 19:43:00,17.2,12.4,30.40,West,267,0.0,1.0,81,0.00,,---,0.05,VWS V14.01,2013-02-10 00:43:00,
2013-02-09 19:49:00,17.1,12.3,30.40,West,267,0.0,1.0,81,0.00,,---,0.05,VWS V14.01,2013-02-10 00:49:00,
2013-02-09 19:55:00,16.8,12.0,30.40,West,267,0.0,1.0,81,0.00,,---,0.05,VWS V14.01,2013-02-10 00:55:00,
2013-02-09 20:01:00,16.7,11.9,30.41,West,267,0.0,1.0,81,0.00,,---,0.05,VWS V14.01,2013-02-10 01:01:00,
2013-02-09 20:07:00,16.6,11.8,30.41,West,267,0.0,0.0,81,0.00,,---,0.05,VWS V14.01,2013-02-10 01:07:00,
2013-02-09 20:13:00,16.6,11.8,30.41,West,267,0.0,0.0,81,0.00,,---,0.05,VWS V14.01,2013-02-10 01:13:00,
2013-02-09 20:19:00,16.5,11.7,30.41,West,267,0.0,0.0,81,0.00,,---,0.05,VWS V14.01,2013-02-10 01:19:00,
2013-02-09 20:26:00,16.4,11.6,30.42,West,267,0.0,0.0,81,0.00,,---,0.05,VWS V14.01,2013-02-10 01:26:00,
2013-02-09 20:31:00,16.3,11.5,30.42,West,267,0.0,0.0,81,0.00,,---,0.05,VWS V14.01,2013-02-10 01:31:00,
2013-02-09 20:38:00,16.2,11.7,30.42,West,267,0.0,0.0,82,0.00,,---,0.05,VWS V14.01,2013-02-10 01:38:00,
2013-02-09 20:44:00,16.1,11.6,30.42,West,267,0.0,0.0,82,0.00,,---,0.05,VWS V14.01,2013-02-10 01:44:00,
2013-02-09 20:50:00,15.7,10.9,30.42,West,267,0.0,0.0,81,0.00,,---,0.05,VWS V14.01,2013-02-10 01:50:00,
2013-02-09 20:56:00,15.3,10.5,30.42,West,267,0.0,0.0,81,0.00,,---,0.05,VWS V14.01,2013-02-10 01:56:00,
2013-02-09 21:01:00,14.9,10.4,30.42,West,267,0.0,0.0,82,0.00,,---,0.05,VWS V14.01,2013-02-10 02:01:00,
2013-02-09 21:08:00,14.7,10.5,30.42,West,267,0.0,0.0,83,0.00,,---,0.05,VWS V14.01,2013-02-10 02:08:00,
2013-02-09 21:14:00,14.5,10.3,30.41,West,267,1.0,1.0,83,0.00,,---,0.05,VWS V14.01,2013-02-10 02:14:00,
2013-02-09 21:20:00,14.3,10.1,30.41,West,267,0.0,1.0,83,0.00,,---,0.05,VWS V14.01,2013-02-10 02:20:00,
2013-02-09 21:26:00,14.1,10.2,30.41,West,267,0.0,1.0,84,0.00,,---,0.05,VWS V14.01,2013-02-10 02:26:00,
2013-02-09 21:31:00,14.0,10.3,30.41,West,267,0.0,1.0,85,0.00,,---,0.05,VWS V14.01,2013-02-10 02:31:00,
2013-02-09 21:38:00,14.0,10.3,30.42,West,267,0.0,0.0,85,0.00,,---,0.05,VWS V14.01,2013-02-10 02:38:00,
2013-02-09 21:44:00,13.7,10.0,30.41,West,267,1.0,1.0,85,0.00,,---,0.05,VWS V14.01,2013-02-10 02:44:00,
2013-02-09 21:50:00,13.4,9.7,30.42,West,267,0.0,1.0,85,0.00,,---,0.05,VWS V14.01,2013-02-10 02:50:00,
2013-02-09 21:56:00,13.3,9.6,30.41,West,267,0.0,1.0,85,0.00,,---,0.05,VWS V14.01,2013-02-10 02:56:00,
2013-02-09 22:01:00,13.2,9.6,30.42,West,267,0.0,1.0,85,0.00,,---,0.05,VWS V14.01,2013-02-10 03:01:00,
2013-02-09 22:08:00,12.8,9.1,30.42,West,267,0.0,0.0,85,0.00,,---,0.05,VWS V14.01,2013-02-10 03:08:00,
2013-02-09 22:14:00,12.6,9.0,30.42,West,267,0.0,0.0,85,0.00,,---,0.05,VWS V14.01,2013-02-10 03:14:00,
2013-02-09 22:20:00,12.7,9.3,30.42,West,267,0.0,0.0,86,0.00,,---,0.05,VWS V14.01,2013-02-10 03:20:00,
2013-02-09 22:26:00,12.6,9.2,30.42,West,267,0.0,1.0,86,0.00,,---,0.05,VWS V14.01,2013-02-10 03:26:00,
2013-02-09 22:33:00,12.5,9.1,30.41,West,267,0.0,1.0,86,0.00,,---,0.05,VWS V14.01,2013-02-10 03:33:00,
2013-02-09 22:39:00,12.2,8.6,30.41,West,267,1.0,1.0,85,0.00,,---,0.05,VWS V14.01,2013-02-10 03:39:00,
2013-02-09 22:45:00,11.9,8.5,30.41,West,267,1.0,1.0,86,0.00,,---,0.05,VWS V14.01,2013-02-10 03:45:00,
2013-02-09 22:51:00,11.7,8.3,30.41,West,267,0.0,2.0,86,0.00,,---,0.05,VWS V14.01,2013-02-10 03:51:00,
2013-02-09 22:57:00,11.7,8.3,30.41,West,267,0.0,2.0,86,0.00,,---,0.05,VWS V14.01,2013-02-10 03:57:00,
2013-02-09 23:03:00,11.6,8.2,30.41,West,267,0.0,0.0,86,0.00,,---,0.05,VWS V14.01,2013-02-10 04:03:00,
2013-02-09 23:09:00,11.5,8.1,30.41,West,267,0.0,1.0,86,0.00,,---,0.05,VWS V14.01,2013-02-10 04:09:00,
2013-02-09 23:15:00,11.1,7.5,30.40,West,267,0.0,2.0,85,0.00,,---,0.05,VWS V14.01,2013-02-10 04:15:00,
2013-02-09 23:21:00,10.5,6.9,30.40,West,267,1.0,3.0,85,0.00,,---,0.05,VWS V14.01,2013-02-10 04:21:00,
2013-02-09 23:27:00,9.9,6.3,30.40,West,267,0.0,3.0,85,0.00,,---,0.05,VWS V14.01,2013-02-10 04:27:00,
2013-02-09 23:33:00,9.8,6.2,30.40,West,267,1.0,2.0,85,0.00,,---,0.05,VWS V14.01,2013-02-10 04:33:00,
2013-02-09 23:39:00,9.9,6.6,30.40,West,267,0.0,2.0,86,0.00,,---,0.05,VWS V14.01,2013-02-10 04:39:00,
2013-02-09 23:45:00,10.1,7.0,30.40,West,267,0.0,2.0,87,0.00,,---,0.05,VWS V14.01,2013-02-10 04:45:00,
2013-02-09 23:51:00,10.4,7.3,30.40,West,267,1.0,2.0,87,0.00,,---,0.05,VWS V14.01,2013-02-10 04:51:00,
2013-02-09 23:57:00,10.5,7.4,30.40,West,267,1.0,2.0,87,0.00,,---,0.05,VWS V14.01,2013-02-10 04:57:00,